When you browse on this site, cookies collect data to enhance your experience and personalize the content and advertising you see.
Visit our Privacy Policy to learn more. By continuing to use the site, you agree to this use of cookies and data.
  • In Schweiz
  • Länderverzeichnis
  • Für 7 Tage
  • Wassertemperatur
  • Wetterkarte
  • Widgets
  • user-avatar
    Anmelden

    Stündliche Wetter Guanare

    Heute, 25 Mai, Montag

    Zeit Temperatur Niederschläge Wind Luftdruck Luftfeuchtigkeit
    00:00 +27°C° 0 mm 1 m/S 741 mmHg 83%
    01:00 +27°C° 0 mm 1 m/S 741 mmHg 84%
    02:00 +26°C° 0.1 mm 1 m/S 741 mmHg 84%
    03:00 +26°C° 0.1 mm 1 m/S 741 mmHg 85%
    04:00 +26°C° 0.1 mm 1 m/S 741 mmHg 85%
    05:00 +27°C° 0 mm 1 m/S 741 mmHg 82%
    06:00 +28°C° 0 mm 1 m/S 742 mmHg 80%
    07:00 +29°C° 0 mm 1 m/S 742 mmHg 78%
    08:00 +30°C° 0.4 mm 1 m/S 742 mmHg 75%
    09:00 +31°C° 0.4 mm 1 m/S 742 mmHg 72%
    10:00 +32°C° 0.4 mm 1 m/S 742 mmHg 69%
    11:00 +32°C° 1.1 mm 1 m/S 742 mmHg 69%
    12:00 +32°C° 1.1 mm 1 m/S 741 mmHg 69%
    13:00 +33°C° 1.1 mm 1 m/S 740 mmHg 69%
    14:00 +32°C° 0.9 mm 1 m/S 740 mmHg 72%
    15:00 +31°C° 0.9 mm 1 m/S 739 mmHg 76%
    16:00 +31°C° 0.9 mm 1 m/S 739 mmHg 79%
    17:00 +30°C° 0.4 mm 1 m/S 739 mmHg 84%
    18:00 +28°C° 0.4 mm 1 m/S 740 mmHg 88%
    19:00 +25°C° 0.4 mm 0 m/S 740 mmHg 92%
    20:00 +25°C° 0.1 mm 0 m/S 741 mmHg 92%
    21:00 +24°C° 0.1 mm 0 m/S 742 mmHg 92%
    22:00 +24°C° 0.1 mm 0 m/S 742 mmHg 92%
    23:00 +26°C° 0 mm 1 m/S 742 mmHg 92%

    Morgen, 26 Mai, Dienstag

    Zeit Temperatur Niederschläge Wind Luftdruck Luftfeuchtigkeit
    00:00 +26°C° 0 mm 1 m/S 742 mmHg 92%
    01:00 +26°C° 0 mm 1 m/S 741 mmHg 92%
    02:00 +26°C° 0.2 mm 1 m/S 741 mmHg 92%
    03:00 +25°C° 0.2 mm 1 m/S 741 mmHg 93%
    04:00 +25°C° 0.2 mm 1 m/S 741 mmHg 93%
    05:00 +26°C° 0.9 mm 1 m/S 741 mmHg 92%
    06:00 +27°C° 0.9 mm 1 m/S 742 mmHg 91%
    07:00 +25°C° 0.9 mm 0 m/S 742 mmHg 89%
    08:00 +28°C° 0.9 mm 1 m/S 743 mmHg 86%
    09:00 +30°C° 0.9 mm 1 m/S 743 mmHg 83%
    10:00 +31°C° 0.9 mm 2 m/S 743 mmHg 79%
    11:00 +31°C° 1.1 mm 1 m/S 742 mmHg 76%
    12:00 +32°C° 1.1 mm 1 m/S 741 mmHg 74%
    13:00 +32°C° 1.1 mm 1 m/S 740 mmHg 71%
    14:00 +32°C° 0.7 mm 1 m/S 740 mmHg 72%
    15:00 +32°C° 0.7 mm 1 m/S 740 mmHg 73%
    16:00 +31°C° 0.7 mm 1 m/S 739 mmHg 75%
    17:00 +30°C° 0.9 mm 1 m/S 740 mmHg 80%
    18:00 +28°C° 0.9 mm 1 m/S 740 mmHg 86%
    19:00 +27°C° 0.9 mm 1 m/S 741 mmHg 92%
    20:00 +26°C° 0.9 mm 1 m/S 741 mmHg 94%
    21:00 +26°C° 0.9 mm 1 m/S 742 mmHg 95%
    22:00 +25°C° 0.9 mm 1 m/S 742 mmHg 97%
    23:00 +25°C° 0.1 mm 1 m/S 742 mmHg 97%

    übermorgen, 27 Mai, Mittwoch

    Zeit Temperatur Niederschläge Wind Luftdruck Luftfeuchtigkeit
    00:00 +25°C° 0.1 mm 1 m/S 742 mmHg 97%
    01:00 +25°C° 0.1 mm 1 m/S 741 mmHg 98%
    02:00 +25°C° 0 mm 1 m/S 741 mmHg 98%
    03:00 +25°C° 0 mm 1 m/S 741 mmHg 98%
    04:00 +24°C° 0 mm 1 m/S 741 mmHg 98%
    05:00 +25°C° 0 mm 1 m/S 741 mmHg 96%
    06:00 +25°C° 0 mm 1 m/S 742 mmHg 95%
    07:00 +26°C° 0 mm 2 m/S 742 mmHg 94%
    08:00 +27°C° 0.1 mm 2 m/S 743 mmHg 88%
    09:00 +28°C° 0.1 mm 2 m/S 743 mmHg 82%
    10:00 +29°C° 0.1 mm 2 m/S 743 mmHg 75%
    11:00 +30°C° 0.2 mm 2 m/S 742 mmHg 73%
    12:00 +31°C° 0.2 mm 2 m/S 741 mmHg 70%
    13:00 +32°C° 0.2 mm 2 m/S 741 mmHg 68%
    14:00 +31°C° 0.7 mm 2 m/S 740 mmHg 71%
    15:00 +31°C° 0.7 mm 1 m/S 740 mmHg 74%
    16:00 +31°C° 0.7 mm 1 m/S 739 mmHg 77%
    17:00 +29°C° 0.2 mm 1 m/S 740 mmHg 82%
    18:00 +28°C° 0.2 mm 1 m/S 740 mmHg 87%
    19:00 +24°C° 0.2 mm 0 m/S 741 mmHg 92%
    20:00 +24°C° 1.2 mm 0 m/S 741 mmHg 93%
    21:00 +24°C° 1.1 mm 0 m/S 742 mmHg 95%
    22:00 +24°C° 1.1 mm 0 m/S 742 mmHg 96%
    23:00 +23°C° 0.5 mm 0 m/S 742 mmHg 96%

    28 Mai, Donnerstag

    Zeit Temperatur Niederschläge Wind Luftdruck Luftfeuchtigkeit
    00:00 +23°C° 0.5 mm 0 m/S 741 mmHg 97%
    01:00 +23°C° 0.5 mm 0 m/S 741 mmHg 97%
    02:00 +23°C° 0.1 mm 0 m/S 741 mmHg 97%
    03:00 +23°C° 0.1 mm 0 m/S 741 mmHg 97%
    04:00 +23°C° 0.1 mm 0 m/S 740 mmHg 97%
    05:00 +23°C° 0.1 mm 0 m/S 741 mmHg 96%
    06:00 +24°C° 0.1 mm 0 m/S 742 mmHg 95%
    07:00 +24°C° 0.1 mm 0 m/S 742 mmHg 94%
    08:00 +26°C° 0.3 mm 0 m/S 742 mmHg 86%
    09:00 +30°C° 0.3 mm 1 m/S 742 mmHg 79%
    10:00 +31°C° 0.3 mm 1 m/S 742 mmHg 71%
    11:00 +31°C° 1.1 mm 1 m/S 741 mmHg 72%
    12:00 +31°C° 1.1 mm 1 m/S 741 mmHg 73%
    13:00 +32°C° 1.1 mm 1 m/S 740 mmHg 75%
    14:00 +30°C° 1.6 mm 1 m/S 740 mmHg 80%
    15:00 +29°C° 1.6 mm 1 m/S 739 mmHg 85%
    16:00 +28°C° 1.6 mm 1 m/S 739 mmHg 90%
    17:00 +26°C° 0.2 mm 0 m/S 740 mmHg 91%
    18:00 +25°C° 0.2 mm 0 m/S 740 mmHg 92%
    19:00 +24°C° 0.2 mm 0 m/S 741 mmHg 93%
    20:00 +24°C° 0.1 mm 0 m/S 741 mmHg 93%
    21:00 +24°C° 0.1 mm 0 m/S 741 mmHg 93%
    22:00 +24°C° 0.1 mm 0 m/S 742 mmHg 93%
    23:00 +25°C° 0.6 mm 1 m/S 742 mmHg 94%

    29 Mai, Freitag

    Zeit Temperatur Niederschläge Wind Luftdruck Luftfeuchtigkeit
    00:00 +25°C° 0.6 mm 1 m/S 741 mmHg 94%
    01:00 +25°C° 0.6 mm 1 m/S 741 mmHg 95%
    02:00 +25°C° 1.3 mm 1 m/S 741 mmHg 95%
    03:00 +25°C° 1.3 mm 1 m/S 741 mmHg 96%
    04:00 +25°C° 1.3 mm 1 m/S 741 mmHg 96%
    05:00 +25°C° 0.9 mm 1 m/S 741 mmHg 95%
    06:00 +23°C° 0.9 mm 0 m/S 742 mmHg 94%
    07:00 +24°C° 0.9 mm 0 m/S 743 mmHg 94%
    08:00 +27°C° 0.8 mm 1 m/S 743 mmHg 89%
    09:00 +29°C° 0.8 mm 1 m/S 743 mmHg 84%
    10:00 +30°C° 0.8 mm 1 m/S 743 mmHg 79%
    11:00 +31°C° 0.4 mm 1 m/S 742 mmHg 74%
    12:00 +31°C° 0.4 mm 1 m/S 741 mmHg 70%
    13:00 +32°C° 0.4 mm 2 m/S 741 mmHg 65%
    14:00 +32°C° 0.2 mm 2 m/S 740 mmHg 68%
    15:00 +31°C° 0.2 mm 2 m/S 740 mmHg 71%
    16:00 +31°C° 0.2 mm 1 m/S 739 mmHg 74%
    17:00 +29°C° 0.2 mm 1 m/S 740 mmHg 80%
    18:00 +28°C° 0.2 mm 1 m/S 740 mmHg 87%
    19:00 +24°C° 0.2 mm 0 m/S 741 mmHg 93%
    20:00 +24°C° 0 mm 0 m/S 741 mmHg 93%
    21:00 +26°C° 0 mm 1 m/S 741 mmHg 94%
    22:00 +26°C° 0 mm 1 m/S 742 mmHg 94%
    23:00 +25°C° 0.2 mm 1 m/S 741 mmHg 93%

    30 Mai, Samstag

    Zeit Temperatur Niederschläge Wind Luftdruck Luftfeuchtigkeit
    00:00 +25°C° 0.2 mm 1 m/S 741 mmHg 92%
    01:00 +25°C° 0.2 mm 1 m/S 741 mmHg 91%
    02:00 +25°C° 0.1 mm 1 m/S 741 mmHg 89%
    03:00 +25°C° 0.1 mm 1 m/S 741 mmHg 88%
    04:00 +25°C° 0.1 mm 1 m/S 741 mmHg 86%
    05:00 +26°C° 0.3 mm 1 m/S 741 mmHg 85%
    06:00 +24°C° 0.3 mm 0 m/S 742 mmHg 85%
    07:00 +25°C° 0.3 mm 0 m/S 742 mmHg 84%
    08:00 +25°C° 0.8 mm 0 m/S 742 mmHg 86%
    09:00 +26°C° 0.8 mm 0 m/S 742 mmHg 87%
    10:00 +26°C° 0.8 mm 0 m/S 742 mmHg 89%
    11:00 +27°C° 1.6 mm 0 m/S 742 mmHg 86%
    12:00 +28°C° 1.6 mm 0 m/S 741 mmHg 84%
    13:00 +29°C° 1.6 mm 0 m/S 741 mmHg 81%
    14:00 +28°C° 1.7 mm 0 m/S 740 mmHg 81%
    15:00 +28°C° 1.7 mm 0 m/S 740 mmHg 82%
    16:00 +28°C° 1.7 mm 0 m/S 739 mmHg 83%
    17:00 +27°C° 0.5 mm 0 m/S 740 mmHg 86%
    18:00 +25°C° 0.5 mm 0 m/S 740 mmHg 89%
    19:00 +24°C° 0.5 mm 0 m/S 741 mmHg 92%
    20:00 +24°C° 0.5 mm 0 m/S 741 mmHg 93%
    21:00 +26°C° 0.5 mm 1 m/S 742 mmHg 94%
    22:00 +25°C° 0.5 mm 1 m/S 742 mmHg 94%
    23:00 +25°C° 1 mm 1 m/S 742 mmHg 95%
    Mehr zeigen